LOT2163 EPKK-LEBL

Flight info

Callsign LOT2163
Flight time 2h 25m
Altitude 36000
Route BABKO DCT VADEX DCT KOPAT DCT MAREG DCT NURMI DCT INGID DCT DETSA/M78F370 DCT SUMIR DCT GEKBA DCT VAMTU DCT KOLON DCT GANGU DCT PADKO DCT DIVKO DCT NILDU DCT BISBA
Aircraft B738/M-SDE2E3FGHIRWXY/LB1

Departure

Time 2026-05-05 05:14
Airport Kraków John Paul II International Airport (EPKK)

Arrival

Time 2026-05-05 07:39
Airport Josep Tarradellas Barcelona-El Prat Airport (LEBL)
Time Latitude Longitude Altitude Speed Heading
2026-05-05 04:57 50.07355 19.80241 799 ft 0 kts 168°
2026-05-05 05:06 50.07357 19.80241 799 ft 1 kts 168°
2026-05-05 05:06 50.07372 19.80236 799 ft 3 kts 168°
2026-05-05 05:06 50.07390 19.80230 799 ft 3 kts 168°
2026-05-05 05:06 50.07410 19.80223 799 ft 3 kts 168°
2026-05-05 05:07 50.07411 19.80223 799 ft 0 kts 168°
2026-05-05 05:07 50.07416 19.80221 799 ft 2 kts 168°
2026-05-05 05:07 50.07426 19.80216 799 ft 0 kts 151°
2026-05-05 05:09 50.07422 19.80225 799 ft 2 kts 108°
2026-05-05 05:10 50.07430 19.80267 799 ft 7 kts 72°
2026-05-05 05:10 50.07442 19.80338 799 ft 7 kts 70°
2026-05-05 05:10 50.07476 19.80381 799 ft 7 kts 20°
2026-05-05 05:10 50.07519 19.80402 799 ft 6 kts 17°
2026-05-05 05:11 50.07561 19.80422 799 ft 6 kts 14°
2026-05-05 05:11 50.07622 19.80409 799 ft 13 kts 347°
2026-05-05 05:11 50.07708 19.80379 799 ft 12 kts 347°
2026-05-05 05:11 50.07791 19.80350 799 ft 12 kts 348°
2026-05-05 05:12 50.07871 19.80324 799 ft 12 kts 348°
2026-05-05 05:12 50.07947 19.80298 799 ft 9 kts 348°
2026-05-05 05:12 50.07992 19.80283 799 ft 4 kts 348°
2026-05-05 05:12 50.08014 19.80259 799 ft 4 kts 286°
2026-05-05 05:13 50.08011 19.80215 799 ft 4 kts 258°
2026-05-05 05:13 50.07997 19.80112 799 ft 29 kts 258°
2026-05-05 05:13 50.07907 19.79462 799 ft 94 kts 257°
2026-05-05 05:13 50.07724 19.78159 801 ft 150 kts 258°
2026-05-05 05:14 50.07479 19.76396 1125 ft 173 kts 257°
2026-05-05 05:14 50.07211 19.74609 1985 ft 168 kts 257°
2026-05-05 05:14 50.06921 19.72788 2598 ft 180 kts 257°
2026-05-05 05:14 50.06644 19.70741 2940 ft 206 kts 259°
2026-05-05 05:15 50.06327 19.68423 3238 ft 231 kts 255°
2026-05-05 05:15 50.05582 19.66104 3571 ft 251 kts 228°
2026-05-05 05:15 50.04182 19.64553 4429 ft 247 kts 201°
2026-05-05 05:15 50.02473 19.64114 5118 ft 256 kts 176°
2026-05-05 05:16 50.00697 19.64571 5853 ft 263 kts 167°
2026-05-05 05:16 49.98899 19.65287 6628 ft 269 kts 166°
2026-05-05 05:16 49.97064 19.66047 7377 ft 275 kts 167°
2026-05-05 05:16 49.95200 19.66813 8180 ft 279 kts 167°
2026-05-05 05:17 49.93312 19.67586 8973 ft 282 kts 167°
2026-05-05 05:17 49.91402 19.68367 9791 ft 284 kts 167°
2026-05-05 05:17 49.89508 19.69107 10588 ft 286 kts 172°
2026-05-05 05:17 49.87495 19.69138 11038 ft 296 kts 192°
2026-05-05 05:18 49.85524 19.68137 11691 ft 299 kts 205°
2026-05-05 05:18 49.83686 19.66615 12497 ft 300 kts 211°
2026-05-05 05:18 49.81888 19.64917 13202 ft 304 kts 212°
2026-05-05 05:18 49.80054 19.63213 13879 ft 309 kts 211°
2026-05-05 05:19 49.78181 19.61539 14563 ft 313 kts 211°
2026-05-05 05:19 49.76276 19.59879 15244 ft 316 kts 211°
2026-05-05 05:19 49.74341 19.58209 15885 ft 320 kts 211°
2026-05-05 05:19 49.72380 19.56525 16523 ft 324 kts 211°
2026-05-05 05:20 49.70395 19.54826 17156 ft 328 kts 211°
2026-05-05 05:20 49.68392 19.53113 17775 ft 331 kts 211°
2026-05-05 05:20 49.66394 19.51407 18375 ft 334 kts 211°
2026-05-05 05:20 49.64348 19.49661 18932 ft 339 kts 211°
2026-05-05 05:21 49.62304 19.47790 19498 ft 342 kts 215°
2026-05-05 05:21 49.60415 19.45537 20022 ft 346 kts 222°
2026-05-05 05:21 49.58671 19.42956 20564 ft 349 kts 226°
2026-05-05 05:21 49.56982 19.40229 21066 ft 354 kts 227°
2026-05-05 05:22 49.55294 19.37439 21573 ft 358 kts 227°
2026-05-05 05:22 49.53586 19.34634 22071 ft 361 kts 227°
2026-05-05 05:22 49.51848 19.31795 22550 ft 366 kts 227°
2026-05-05 05:22 49.50092 19.28937 23025 ft 369 kts 227°
2026-05-05 05:23 49.48316 19.26052 23497 ft 373 kts 227°
2026-05-05 05:23 49.46558 19.23166 23947 ft 376 kts 227°
2026-05-05 05:23 49.44772 19.20192 24403 ft 379 kts 227°
2026-05-05 05:23 49.42963 19.17225 24870 ft 382 kts 227°
2026-05-05 05:24 49.41132 19.14251 25320 ft 385 kts 227°
2026-05-05 05:24 49.39280 19.11258 25754 ft 387 kts 227°
2026-05-05 05:24 49.37412 19.08251 26155 ft 391 kts 227°
2026-05-05 05:24 49.35526 19.05220 26558 ft 394 kts 227°
2026-05-05 05:25 49.33632 19.02180 26961 ft 396 kts 227°
2026-05-05 05:25 49.31721 18.99116 27358 ft 398 kts 227°
2026-05-05 05:25 49.29804 18.96043 27741 ft 401 kts 227°
2026-05-05 05:25 49.27870 18.92946 28116 ft 403 kts 227°
2026-05-05 05:26 49.25923 18.89829 28482 ft 405 kts 227°
2026-05-05 05:26 49.23977 18.86695 28838 ft 408 kts 227°
2026-05-05 05:26 49.22020 18.83549 29215 ft 409 kts 227°
2026-05-05 05:26 49.20048 18.80397 29565 ft 411 kts 227°
2026-05-05 05:27 49.18064 18.77239 29897 ft 413 kts 227°
2026-05-05 05:27 49.16068 18.74066 30215 ft 415 kts 227°
2026-05-05 05:27 49.12050 18.67688 30854 ft 418 kts 227°
2026-05-05 05:28 49.10052 18.64445 31157 ft 419 kts 229°
2026-05-05 05:28 49.08189 18.61093 31466 ft 420 kts 232°
2026-05-05 05:28 49.06360 18.57599 31739 ft 422 kts 233°
2026-05-05 05:28 49.04538 18.54086 32043 ft 423 kts 232°
2026-05-05 05:29 49.02697 18.50571 32279 ft 426 kts 232°
2026-05-05 05:29 49.00839 18.47050 32540 ft 427 kts 232°
2026-05-05 05:29 48.98969 18.43524 32799 ft 429 kts 232°
2026-05-05 05:29 48.97088 18.39991 33038 ft 430 kts 232°
2026-05-05 05:30 48.95198 18.36450 33282 ft 432 kts 232°
2026-05-05 05:30 48.93300 18.32902 33514 ft 433 kts 232°
2026-05-05 05:30 48.91396 18.29350 33813 ft 433 kts 232°
2026-05-05 05:30 48.89496 18.25812 34181 ft 430 kts 232°
2026-05-05 05:31 48.87624 18.22270 34455 ft 430 kts 232°
2026-05-05 05:31 48.85755 18.18719 34727 ft 430 kts 232°
2026-05-05 05:31 48.83877 18.15179 34959 ft 431 kts 232°
2026-05-05 05:31 48.81986 18.11633 35246 ft 430 kts 232°
2026-05-05 05:32 48.80124 18.08154 35510 ft 430 kts 232°
2026-05-05 05:32 48.78236 18.04637 35770 ft 430 kts 232°
2026-05-05 05:32 48.76343 18.01120 35922 ft 432 kts 232°
2026-05-05 05:32 48.74438 17.97585 35933 ft 433 kts 231°
2026-05-05 05:33 48.70634 17.90546 35934 ft 429 kts 231°
2026-05-05 05:33 48.66870 17.83604 35935 ft 426 kts 231°
2026-05-05 05:34 48.63102 17.76670 35935 ft 427 kts 231°
2026-05-05 05:34 48.59328 17.69745 35934 ft 427 kts 231°
2026-05-05 05:35 48.55550 17.62830 35932 ft 427 kts 231°
2026-05-05 05:35 48.51766 17.55920 35929 ft 427 kts 231°
2026-05-05 05:36 48.47973 17.49013 35924 ft 428 kts 231°
2026-05-05 05:36 48.44174 17.42113 35919 ft 427 kts 231°
2026-05-05 05:37 48.40397 17.35271 35915 ft 427 kts 231°
2026-05-05 05:37 48.36626 17.28366 35911 ft 426 kts 231°
2026-05-05 05:38 48.32831 17.21524 35909 ft 426 kts 231°
2026-05-05 05:38 48.29017 17.14694 35904 ft 426 kts 231°
2026-05-05 05:39 48.25197 17.07874 35905 ft 426 kts 230°
2026-05-05 05:39 48.21411 17.01053 35901 ft 425 kts 233°
2026-05-05 05:40 48.18441 16.93480 35900 ft 425 kts 246°
2026-05-05 05:40 48.16222 16.85280 35892 ft 424 kts 249°
2026-05-05 05:41 48.14134 16.77016 35885 ft 424 kts 249°
2026-05-05 05:41 48.12056 16.68761 35879 ft 423 kts 249°
2026-05-05 05:42 48.09983 16.60528 35876 ft 423 kts 249°
2026-05-05 05:42 48.07903 16.52290 35876 ft 423 kts 249°
2026-05-05 05:43 48.05876 16.44090 35876 ft 423 kts 250°
2026-05-05 05:43 48.03847 16.35844 35878 ft 422 kts 249°
2026-05-05 05:44 48.01792 16.27632 35879 ft 422 kts 249°
2026-05-05 05:44 47.99737 16.19487 35881 ft 423 kts 249°
2026-05-05 05:45 47.97635 16.11201 35884 ft 423 kts 249°
2026-05-05 05:45 47.95546 16.03003 35886 ft 423 kts 249°
2026-05-05 05:46 47.93450 15.94807 35889 ft 423 kts 249°
2026-05-05 05:46 47.91361 15.86670 35891 ft 423 kts 249°
2026-05-05 05:47 47.89253 15.78486 35893 ft 422 kts 249°
2026-05-05 05:47 47.87142 15.70323 35896 ft 422 kts 249°
2026-05-05 05:48 47.85023 15.62159 35900 ft 422 kts 248°
2026-05-05 05:48 47.82899 15.53999 35903 ft 422 kts 248°
2026-05-05 05:49 47.80773 15.45864 35905 ft 422 kts 248°
2026-05-05 05:49 47.78641 15.37714 35911 ft 422 kts 249°
2026-05-05 05:50 47.76555 15.29611 35920 ft 422 kts 248°
2026-05-05 05:50 47.74405 15.21487 35924 ft 421 kts 248°
2026-05-05 05:51 47.72244 15.13392 35926 ft 421 kts 248°
2026-05-05 05:51 47.70443 15.06665 35928 ft 421 kts 248°
2026-05-05 05:52 47.67926 14.97274 35930 ft 421 kts 248°
2026-05-05 05:52 47.66063 14.90523 35932 ft 421 kts 245°
2026-05-05 05:53 47.63580 14.82725 35935 ft 420 kts 244°
2026-05-05 05:53 47.61062 14.74904 35937 ft 420 kts 244°
2026-05-05 05:54 47.58559 14.67077 35945 ft 420 kts 244°
2026-05-05 05:54 47.56065 14.59272 35947 ft 419 kts 244°
2026-05-05 05:55 47.53563 14.51452 35948 ft 420 kts 244°
2026-05-05 05:55 47.51095 14.43624 35949 ft 420 kts 245°
2026-05-05 05:56 47.48630 14.35786 35949 ft 420 kts 244°
2026-05-05 05:56 47.46159 14.28033 35947 ft 420 kts 244°
2026-05-05 05:57 47.43658 14.20234 35944 ft 419 kts 244°
2026-05-05 05:57 47.41155 14.12463 35938 ft 420 kts 244°
2026-05-05 05:58 47.38677 14.04650 35933 ft 420 kts 244°
2026-05-05 05:58 47.36158 13.96879 35929 ft 419 kts 244°
2026-05-05 05:59 47.33629 13.89146 35929 ft 418 kts 244°
2026-05-05 05:59 47.31092 13.81419 35929 ft 419 kts 244°
2026-05-05 06:00 47.28555 13.73699 35929 ft 419 kts 244°
2026-05-05 06:00 47.26025 13.65972 35930 ft 419 kts 244°
2026-05-05 06:01 47.23526 13.58292 35963 ft 420 kts 244°
2026-05-05 06:01 47.22268 13.54441 36127 ft 422 kts 244°
2026-05-05 06:01 47.20970 13.50476 36421 ft 421 kts 244°
2026-05-05 06:02 47.19718 13.46659 36699 ft 419 kts 244°
2026-05-05 06:02 47.18448 13.42792 36908 ft 420 kts 244°
2026-05-05 06:02 47.15896 13.35040 36939 ft 420 kts 244°
2026-05-05 06:03 47.13350 13.27330 36956 ft 418 kts 244°
2026-05-05 06:03 47.10851 13.19671 36967 ft 419 kts 245°
2026-05-05 06:04 47.08349 13.11952 36977 ft 419 kts 244°
2026-05-05 06:04 47.05818 13.04249 36987 ft 419 kts 244°
2026-05-05 06:05 47.03275 12.96562 37000 ft 419 kts 244°
2026-05-05 06:05 47.00726 12.88893 37013 ft 418 kts 244°
2026-05-05 06:06 46.98175 12.81241 37025 ft 417 kts 244°
2026-05-05 06:06 46.95635 12.73649 37037 ft 418 kts 244°
2026-05-05 06:07 46.93105 12.65993 37049 ft 418 kts 244°
2026-05-05 06:07 46.90543 12.58342 37061 ft 418 kts 244°
2026-05-05 06:08 46.87958 12.50720 37072 ft 417 kts 243°
2026-05-05 06:08 46.85371 12.43124 37083 ft 418 kts 243°
2026-05-05 06:09 46.82782 12.35534 37094 ft 418 kts 243°
2026-05-05 06:09 46.79987 12.28169 37102 ft 418 kts 236°
2026-05-05 06:10 46.76399 12.21473 37109 ft 418 kts 230°
2026-05-05 06:10 46.72614 12.15018 37111 ft 418 kts 230°
2026-05-05 06:11 46.68828 12.08569 37109 ft 418 kts 230°
2026-05-05 06:11 46.65041 12.02128 37103 ft 418 kts 230°
2026-05-05 06:12 46.61252 11.95692 37087 ft 419 kts 230°
2026-05-05 06:12 46.57477 11.89279 37062 ft 420 kts 230°
2026-05-05 06:13 46.53682 11.82748 37058 ft 420 kts 230°
2026-05-05 06:13 46.49911 11.76333 37065 ft 420 kts 230°
2026-05-05 06:14 46.46112 11.69875 37052 ft 420 kts 230°
2026-05-05 06:14 46.42321 11.63426 37050 ft 420 kts 230°
2026-05-05 06:15 46.38509 11.57028 37045 ft 419 kts 230°
2026-05-05 06:15 46.34686 11.50641 37038 ft 419 kts 230°
2026-05-05 06:16 46.30888 11.44304 37030 ft 419 kts 230°
2026-05-05 06:16 46.27066 11.37937 37025 ft 419 kts 230°
2026-05-05 06:17 46.23380 11.31415 37024 ft 419 kts 233°
2026-05-05 06:17 46.19896 11.24667 37007 ft 419 kts 233°
2026-05-05 06:18 46.16392 11.17950 36998 ft 419 kts 233°
2026-05-05 06:18 46.12872 11.11256 36997 ft 419 kts 233°
2026-05-05 06:19 46.09340 11.04575 36997 ft 419 kts 233°
2026-05-05 06:19 46.05805 10.97910 36998 ft 419 kts 233°
2026-05-05 06:20 46.02330 10.91253 36998 ft 419 kts 233°
2026-05-05 06:20 45.98821 10.84563 36999 ft 418 kts 233°
2026-05-05 06:21 45.95310 10.77921 36998 ft 416 kts 233°
2026-05-05 06:21 45.91791 10.71297 36999 ft 417 kts 233°
2026-05-05 06:22 45.88265 10.64683 36998 ft 417 kts 233°
2026-05-05 06:22 45.84732 10.58075 36998 ft 417 kts 233°
2026-05-05 06:23 45.81202 10.51489 36997 ft 417 kts 232°
2026-05-05 06:23 45.77686 10.44947 36997 ft 417 kts 232°
2026-05-05 06:24 45.74141 10.38364 36996 ft 418 kts 232°
2026-05-05 06:24 45.70588 10.31784 36996 ft 418 kts 232°
2026-05-05 06:25 45.67035 10.25218 36996 ft 418 kts 232°
2026-05-05 06:25 45.63474 10.18653 36994 ft 418 kts 232°
2026-05-05 06:26 45.59912 10.12101 36994 ft 418 kts 232°
2026-05-05 06:26 45.56345 10.05555 36994 ft 418 kts 232°
2026-05-05 06:27 45.50991 9.95759 36983 ft 416 kts 232°
2026-05-05 06:28 45.47432 9.89266 36983 ft 415 kts 232°
2026-05-05 06:28 45.43863 9.82770 36983 ft 416 kts 232°
2026-05-05 06:29 45.40319 9.76332 36985 ft 415 kts 232°
2026-05-05 06:29 45.36758 9.69880 36985 ft 415 kts 232°
2026-05-05 06:30 45.33192 9.63432 36990 ft 414 kts 232°
2026-05-05 06:30 45.29626 9.57001 36992 ft 414 kts 232°
2026-05-05 06:31 45.26068 9.50598 36992 ft 413 kts 232°
2026-05-05 06:31 45.22508 9.44203 36991 ft 413 kts 232°
2026-05-05 06:32 45.18941 9.37815 36991 ft 412 kts 232°
2026-05-05 06:32 45.15399 9.31483 36990 ft 411 kts 232°
2026-05-05 06:33 45.11839 9.25135 36989 ft 411 kts 232°
2026-05-05 06:33 45.08274 9.18790 36988 ft 412 kts 232°
2026-05-05 06:34 45.04706 9.12452 36986 ft 411 kts 232°
2026-05-05 06:34 45.01145 9.06144 36984 ft 411 kts 232°
2026-05-05 06:35 44.97578 8.99839 36981 ft 411 kts 231°
2026-05-05 06:35 44.94006 8.93538 36978 ft 410 kts 231°
2026-05-05 06:36 44.90440 8.87264 36973 ft 410 kts 231°
2026-05-05 06:36 44.86868 8.80991 36964 ft 410 kts 231°
2026-05-05 06:37 44.83293 8.74725 36958 ft 410 kts 231°
2026-05-05 06:37 44.79738 8.68511 36954 ft 410 kts 231°
2026-05-05 06:38 44.76158 8.62264 36949 ft 410 kts 231°
2026-05-05 06:38 44.72570 8.56017 36947 ft 410 kts 231°
2026-05-05 06:39 44.68980 8.49783 36947 ft 409 kts 231°
2026-05-05 06:39 44.65394 8.43565 36946 ft 409 kts 231°
2026-05-05 06:40 44.61802 8.37353 36946 ft 410 kts 231°
2026-05-05 06:40 44.58815 8.32196 36946 ft 409 kts 231°
2026-05-05 06:41 44.55216 8.25997 36946 ft 410 kts 231°
2026-05-05 06:41 44.51615 8.19808 36950 ft 410 kts 231°
2026-05-05 06:42 44.48014 8.13631 36962 ft 410 kts 231°
2026-05-05 06:42 44.44450 8.07459 36970 ft 410 kts 231°
2026-05-05 06:43 44.40839 8.01289 36969 ft 409 kts 231°
2026-05-05 06:43 44.37218 7.95139 36967 ft 410 kts 231°
2026-05-05 06:44 44.33594 7.88999 36967 ft 409 kts 231°
2026-05-05 06:44 44.29975 7.82875 36967 ft 409 kts 231°
2026-05-05 06:45 44.26210 7.76930 36966 ft 409 kts 225°
2026-05-05 06:45 44.21994 7.71649 36965 ft 410 kts 223°
2026-05-05 06:46 44.17705 7.66395 36965 ft 410 kts 223°
2026-05-05 06:46 44.13538 7.60966 36964 ft 409 kts 228°
2026-05-05 06:47 44.09781 7.55022 36965 ft 409 kts 230°
2026-05-05 06:47 44.06068 7.49024 36965 ft 409 kts 230°
2026-05-05 06:48 44.02334 7.43060 36968 ft 409 kts 229°
2026-05-05 06:48 43.98592 7.37112 36973 ft 408 kts 230°
2026-05-05 06:49 43.94887 7.31236 36969 ft 406 kts 229°
2026-05-05 06:49 43.91204 7.25296 36968 ft 406 kts 230°
2026-05-05 06:50 43.87499 7.19379 36967 ft 405 kts 229°
2026-05-05 06:50 43.83780 7.13513 36966 ft 405 kts 229°
2026-05-05 06:51 43.80053 7.07657 36965 ft 405 kts 229°
2026-05-05 06:51 43.76323 7.01807 36965 ft 405 kts 229°
2026-05-05 06:52 43.72862 6.95672 36965 ft 404 kts 238°
2026-05-05 06:52 43.70355 6.88778 36962 ft 405 kts 245°
2026-05-05 06:53 43.68165 6.81603 36961 ft 405 kts 246°
2026-05-05 06:53 43.66008 6.74405 36959 ft 406 kts 246°
2026-05-05 06:54 43.63858 6.67205 36957 ft 405 kts 246°
2026-05-05 06:54 43.61710 6.60014 36954 ft 405 kts 246°
2026-05-05 06:55 43.59560 6.52826 36950 ft 405 kts 246°
2026-05-05 06:55 43.57476 6.45599 36945 ft 405 kts 246°
2026-05-05 06:56 43.55354 6.38406 36942 ft 405 kts 245°
2026-05-05 06:56 43.53195 6.31232 36936 ft 405 kts 245°
2026-05-05 06:57 43.51023 6.24060 36936 ft 406 kts 245°
2026-05-05 06:57 43.48858 6.16923 36936 ft 406 kts 245°
2026-05-05 06:58 43.46681 6.09751 36936 ft 405 kts 245°
2026-05-05 06:58 43.44503 6.02598 36937 ft 405 kts 245°
2026-05-05 06:59 43.42311 5.95435 36939 ft 407 kts 245°
2026-05-05 06:59 43.40109 5.88266 36938 ft 406 kts 245°
2026-05-05 07:00 43.37909 5.81114 36938 ft 406 kts 245°
2026-05-05 07:00 43.35709 5.73964 36935 ft 406 kts 245°
2026-05-05 07:01 43.33583 5.66812 36935 ft 406 kts 245°
2026-05-05 07:01 43.31385 5.59665 36935 ft 406 kts 245°
2026-05-05 07:02 43.29168 5.52532 36935 ft 407 kts 245°
2026-05-05 07:02 43.26940 5.45393 36935 ft 407 kts 245°
2026-05-05 07:03 43.24714 5.38268 36935 ft 406 kts 245°
2026-05-05 07:03 43.22501 5.31189 36935 ft 407 kts 245°
2026-05-05 07:04 43.20263 5.24066 36935 ft 406 kts 245°
2026-05-05 07:04 43.18036 5.16956 36930 ft 406 kts 246°
2026-05-05 07:05 43.15831 5.09811 36934 ft 407 kts 245°
2026-05-05 07:05 43.13582 5.02687 36936 ft 407 kts 245°
2026-05-05 07:06 43.11324 4.95585 36936 ft 406 kts 245°
2026-05-05 07:06 43.09064 4.88496 36933 ft 407 kts 245°
2026-05-05 07:07 43.06752 4.81482 36929 ft 406 kts 240°
2026-05-05 07:07 43.03348 4.75344 36930 ft 406 kts 226°
2026-05-05 07:08 42.99245 4.70051 36929 ft 406 kts 222°
2026-05-05 07:08 42.95014 4.64925 36930 ft 406 kts 222°
2026-05-05 07:09 42.90775 4.59822 36930 ft 406 kts 222°
2026-05-05 07:09 42.86536 4.54735 36931 ft 405 kts 222°
2026-05-05 07:10 42.82299 4.49661 36936 ft 406 kts 222°
2026-05-05 07:10 42.78093 4.44597 36942 ft 406 kts 223°
2026-05-05 07:11 42.73847 4.39473 36942 ft 405 kts 223°
2026-05-05 07:11 42.69652 4.34446 36942 ft 404 kts 223°
2026-05-05 07:12 42.65500 4.29489 36938 ft 386 kts 223°
2026-05-05 07:12 42.61545 4.24780 36572 ft 374 kts 223°
2026-05-05 07:12 42.59561 4.22421 35581 ft 385 kts 223°
2026-05-05 07:13 42.57519 4.19995 34675 ft 394 kts 223°
2026-05-05 07:13 42.55444 4.17533 33891 ft 398 kts 223°
2026-05-05 07:13 42.53350 4.15050 33089 ft 402 kts 223°
2026-05-05 07:13 42.51230 4.12539 32256 ft 406 kts 223°
2026-05-05 07:14 42.49137 4.10037 31630 ft 405 kts 223°
2026-05-05 07:14 42.47034 4.07530 31163 ft 400 kts 223°
2026-05-05 07:14 42.44953 4.05064 30657 ft 396 kts 223°
2026-05-05 07:14 42.42881 4.02622 30139 ft 393 kts 223°
2026-05-05 07:15 42.40822 4.00200 29613 ft 390 kts 223°
2026-05-05 07:15 42.38776 3.97798 29121 ft 387 kts 223°
2026-05-05 07:15 42.36748 3.95418 28619 ft 385 kts 223°
2026-05-05 07:15 42.34730 3.93053 28099 ft 383 kts 223°
2026-05-05 07:16 42.32725 3.90704 27610 ft 380 kts 223°
2026-05-05 07:16 42.30761 3.88403 27134 ft 377 kts 223°
2026-05-05 07:16 42.28767 3.86068 26642 ft 374 kts 223°
2026-05-05 07:16 42.26833 3.83806 26148 ft 372 kts 223°
2026-05-05 07:17 42.24888 3.81519 25645 ft 369 kts 223°
2026-05-05 07:17 42.22953 3.79244 25171 ft 367 kts 223°
2026-05-05 07:17 42.21029 3.76995 24623 ft 366 kts 223°
2026-05-05 07:17 42.19106 3.74752 24090 ft 365 kts 222°
2026-05-05 07:18 42.17191 3.72522 23615 ft 362 kts 222°
2026-05-05 07:18 42.15296 3.70317 23153 ft 359 kts 222°
2026-05-05 07:18 42.13409 3.68125 22696 ft 356 kts 222°
2026-05-05 07:18 42.11543 3.65957 22247 ft 353 kts 222°
2026-05-05 07:19 42.09796 3.63659 21800 ft 349 kts 230°
2026-05-05 07:19 42.08394 3.61008 21367 ft 346 kts 239°
2026-05-05 07:19 42.07237 3.58181 20911 ft 344 kts 243°
2026-05-05 07:19 42.06215 3.55278 20466 ft 342 kts 245°
2026-05-05 07:20 42.05271 3.52395 20032 ft 339 kts 245°
2026-05-05 07:20 42.04317 3.49505 19599 ft 337 kts 245°
2026-05-05 07:20 42.03365 3.46640 19170 ft 335 kts 245°
2026-05-05 07:20 42.02415 3.43788 18741 ft 333 kts 245°
2026-05-05 07:21 42.01472 3.40956 18318 ft 331 kts 245°
2026-05-05 07:21 42.00539 3.38144 17899 ft 329 kts 245°
2026-05-05 07:21 41.99612 3.35348 17483 ft 326 kts 245°
2026-05-05 07:21 41.98688 3.32579 17075 ft 324 kts 245°
2026-05-05 07:22 41.97766 3.29823 16666 ft 321 kts 245°
2026-05-05 07:22 41.96851 3.27095 16261 ft 319 kts 245°
2026-05-05 07:22 41.95942 3.24385 15858 ft 317 kts 245°
2026-05-05 07:22 41.95018 3.21707 15456 ft 315 kts 242°
2026-05-05 07:23 41.93904 3.19182 15057 ft 313 kts 236°
2026-05-05 07:23 41.92665 3.16795 14662 ft 311 kts 235°
2026-05-05 07:23 41.91410 3.14439 14267 ft 309 kts 235°
2026-05-05 07:23 41.90161 3.12103 13876 ft 307 kts 234°
2026-05-05 07:24 41.88918 3.09780 13488 ft 305 kts 234°
2026-05-05 07:24 41.87683 3.07474 13102 ft 304 kts 234°
2026-05-05 07:24 41.86457 3.05184 12718 ft 302 kts 235°
2026-05-05 07:24 41.85231 3.02900 12335 ft 300 kts 234°
2026-05-05 07:25 41.84013 3.00633 11950 ft 299 kts 234°
2026-05-05 07:25 41.82800 2.98375 11563 ft 298 kts 234°
2026-05-05 07:25 41.81593 2.96129 11171 ft 297 kts 235°
2026-05-05 07:25 41.80386 2.93884 10777 ft 296 kts 235°
2026-05-05 07:26 41.79184 2.91647 10385 ft 295 kts 235°
2026-05-05 07:26 41.77996 2.89438 10217 ft 287 kts 235°
2026-05-05 07:26 41.76852 2.87312 10150 ft 276 kts 235°
2026-05-05 07:26 41.75752 2.85268 10081 ft 265 kts 235°
2026-05-05 07:27 41.74694 2.83299 10015 ft 255 kts 235°
2026-05-05 07:27 41.73680 2.81412 9967 ft 252 kts 236°
2026-05-05 07:27 41.72630 2.79447 9774 ft 260 kts 236°
2026-05-05 07:27 41.71927 2.78137 9616 ft 263 kts 236°
2026-05-05 07:28 41.70853 2.76140 9384 ft 266 kts 236°
2026-05-05 07:28 41.69772 2.74139 9148 ft 261 kts 236°
2026-05-05 07:28 41.68369 2.71542 8857 ft 256 kts 236°
2026-05-05 07:28 41.67678 2.70264 8717 ft 257 kts 236°
2026-05-05 07:29 41.66628 2.68322 8503 ft 259 kts 236°
2026-05-05 07:29 41.65556 2.66342 8288 ft 264 kts 236°
2026-05-05 07:29 41.64470 2.64347 8062 ft 265 kts 234°
2026-05-05 07:29 41.63263 2.62507 7859 ft 264 kts 228°
2026-05-05 07:30 41.61949 2.60807 7587 ft 262 kts 225°
2026-05-05 07:30 41.59256 2.57618 7095 ft 256 kts 224°
2026-05-05 07:30 41.57921 2.56052 6852 ft 255 kts 224°
2026-05-05 07:31 41.56592 2.54483 6609 ft 255 kts 224°
2026-05-05 07:31 41.55270 2.52918 6365 ft 253 kts 224°
2026-05-05 07:31 41.53951 2.51351 6121 ft 253 kts 224°
2026-05-05 07:31 41.52658 2.49814 5881 ft 252 kts 224°
2026-05-05 07:32 41.51348 2.48255 5637 ft 252 kts 224°
2026-05-05 07:32 41.50044 2.46702 5392 ft 251 kts 223°
2026-05-05 07:32 41.48742 2.45152 5147 ft 251 kts 223°
2026-05-05 07:32 41.47441 2.43603 4905 ft 249 kts 223°
2026-05-05 07:33 41.46168 2.42089 4682 ft 242 kts 223°
2026-05-05 07:33 41.44931 2.40617 4471 ft 232 kts 223°
2026-05-05 07:33 41.43754 2.39216 4231 ft 222 kts 223°
2026-05-05 07:33 41.42623 2.37871 4007 ft 213 kts 223°
2026-05-05 07:34 41.41532 2.36574 3802 ft 211 kts 223°
2026-05-05 07:34 41.40440 2.35276 3642 ft 208 kts 223°
2026-05-05 07:34 41.39374 2.34008 3495 ft 203 kts 223°
2026-05-05 07:34 41.38355 2.32730 3389 ft 199 kts 230°
2026-05-05 07:35 41.37641 2.31176 3279 ft 197 kts 245°
2026-05-05 07:35 41.37092 2.29498 3052 ft 197 kts 246°
2026-05-05 07:35 41.36550 2.27846 2795 ft 192 kts 246°
2026-05-05 07:35 41.36010 2.26242 2542 ft 187 kts 246°
2026-05-05 07:36 41.35477 2.24675 2296 ft 184 kts 246°
2026-05-05 07:36 41.34957 2.23153 2057 ft 182 kts 246°
2026-05-05 07:36 41.34438 2.21637 1810 ft 172 kts 246°
2026-05-05 07:36 41.33965 2.20256 1607 ft 161 kts 247°
2026-05-05 07:37 41.33503 2.18909 1386 ft 156 kts 248°
2026-05-05 07:37 41.33062 2.17624 1183 ft 153 kts 249°
2026-05-05 07:37 41.32617 2.16328 1006 ft 150 kts 249°
2026-05-05 07:37 41.32183 2.15096 785 ft 150 kts 249°
2026-05-05 07:38 41.31755 2.13824 595 ft 152 kts 250°
2026-05-05 07:38 41.31314 2.12551 416 ft 150 kts 249°
2026-05-05 07:38 41.30875 2.11281 212 ft 150 kts 249°
2026-05-05 07:38 41.30451 2.10024 29 ft 147 kts 250°
2026-05-05 07:39 41.30068 2.08873 21 ft 113 kts 246°
2026-05-05 07:39 41.29884 2.08385 20 ft 34 kts 230°
2026-05-05 07:39 41.29750 2.08235 20 ft 15 kts 213°
2026-05-05 07:39 41.29665 2.08198 20 ft 13 kts 161°
2026-05-05 07:40 41.29567 2.08256 20 ft 16 kts 155°
2026-05-05 07:40 41.29472 2.08314 20 ft 15 kts 155°
2026-05-05 07:40 41.29365 2.08379 20 ft 19 kts 156°
2026-05-05 07:40 41.29254 2.08445 20 ft 15 kts 161°
2026-05-05 07:41 41.29153 2.08425 20 ft 15 kts 199°
2026-05-05 07:41 41.29059 2.08376 20 ft 14 kts 222°
2026-05-05 07:41 41.29013 2.08263 20 ft 15 kts 246°
2026-05-05 07:41 41.28973 2.08144 20 ft 14 kts 245°
2026-05-05 07:42 41.28979 2.08081 20 ft 7 kts 330°
2026-05-05 07:42 41.29017 2.08057 20 ft 4 kts 335°
2026-05-05 07:42 41.29024 2.08053 20 ft 0 kts 335°